Lapse_Rate
2.4 2.2 2.0 1.9 1.8 1.9 2.0 2.0 1.8 1.8 1.8 1.5 1.6 1.7 1.9 1.8 2.1 1.7 3.7 6.3 6.0 7.1 6.0 4.9 4.2 4.7 5.7 5.5 5.1 3.7 6.5 6.5 6.5 6.5 6.5 5.7 6.4 5.6 4.9 5.4 5.1 3.3 3.2 3.4 2.2
2.3 2.1 2.2 2.0 1.9 1.8 1.9 1.8 1.6 1.5 1.5 1.7 1.5 1.7 1.9 1.8 1.4 3.4 7.4 7.9 7.8 7.7 5.8 5.6 5.3 4.9 4.9 5.6 4.7 5.7 6.5 6.5 6.5 6.5 6.5 6.2 6.2 6.0 6.1 5.8 5.9 4.8 2.2 1.9 1.9
2.4 2.2 2.2 2.1 2.1 2.2 2.0 1.6 1.5 1.6 1.6 1.5 1.3 1.4 1.7 1.7 3.4 5.8 7.1 7.1 7.2 6.1 5.2 6.1 6.0 5.7 6.1 5.6 5.0 5.5 6.5 6.5 6.3 4.9 5.6 6.1 6.3 5.9 6.3 6.5 4.8 4.2 2.4 2.1 2.2
2.4 2.2 2.2 2.4 2.5 2.4 2.2 1.8 1.9 2.0 1.9 1.7 1.3 1.6 2.0 1.1 6.5 6.4 7.2 6.9 6.9 6.0 5.4 6.1 6.7 6.2 6.3 6.5 5.0 6.5 5.8 6.0 6.0 5.2 5.4 6.5 5.2 6.0 5.6 5.6 4.3 2.6 2.3 2.1 2.4
2.4 2.3 2.4 2.4 2.5 2.3 1.9 1.7 2.3 2.3 2.2 1.9 1.4 1.8 1.7 3.0 5.5 7.2 6.4 5.9 6.0 5.9 6.0 6.6 6.1 6.0 6.5 6.3 5.7 6.5 6.5 5.5 5.1 5.5 4.4 4.5 5.6 6.0 5.1 3.7 3.9 2.9 3.3 2.8 2.6
2.6 2.4 2.3 2.2 2.4 2.4 2.0 1.7 2.3 2.2 2.2 1.4 1.4 2.6 2.3 5.4 6.8 6.3 4.9 4.9 5.1 6.0 5.5 6.3 6.3 6.0 5.6 6.1 6.3 5.9 6.0 6.2 5.9 5.4 5.7 6.3 6.2 5.4 4.8 2.8 3.2 4.0 2.8 3.1 3.0
2.8 2.6 2.4 2.3 2.5 2.5 2.0 1.7 2.6 3.1 3.0 3.2 3.2 4.0 3.2 5.0 6.6 5.9 5.0 4.6 5.3 6.3 5.9 5.6 5.6 5.9 6.0 6.5 5.8 5.6 6.5 6.5 6.3 6.2 6.4 5.6 6.5 6.5 5.4 4.9 3.7 3.2 2.4 2.3 2.2
3.0 2.8 2.6 2.5 2.4 2.6 2.0 1.5 2.7 3.7 4.0 4.5 5.0 4.2 5.4 6.6 7.5 4.9 3.5 4.0 4.7 4.4 4.7 4.9 4.7 5.6 6.1 6.2 6.0 6.5 6.5 6.5 6.5 6.5 6.0 6.1 6.5 6.5 4.4 4.3 4.9 3.3 2.1 2.1 2.4
3.1 2.9 2.8 2.8 2.7 2.7 2.1 1.6 3.2 4.2 4.2 5.2 4.7 4.8 6.0 6.8 4.6 4.9 4.9 4.9 4.5 4.4 4.5 6.8 5.6 5.5 6.4 6.5 6.5 6.5 6.5 6.5 6.5 6.4 6.5 6.5 6.5 6.5 5.1 3.7 5.8 5.3 2.8 2.1 2.0
3.2 3.0 3.0 3.2 3.1 2.7 2.2 1.5 3.6 4.1 3.2 5.5 4.9 5.6 5.6 5.9 5.9 6.4 5.2 4.7 5.7 4.8 4.8 5.9 5.7 6.5 6.5 6.5 6.5 6.5 6.5 6.5 6.5 6.5 6.5 6.5 6.5 6.5 5.6 5.0 4.7 3.4 2.0 1.3 1.6
3.2 3.2 3.4 3.6 3.6 3.2 0.1 -1.2 -0.1 2.9 2.3 4.2 5.3 5.7 5.9 5.3 6.4 6.7 6.2 4.7 5.5 5.2 6.5 5.6 6.5 6.5 6.5 6.5 6.5 6.5 6.5 6.5 6.5 6.5 6.5 6.5 6.5 6.5 6.3 5.6 5.3 3.4 2.1 2.0 2.8
3.1 3.1 3.5 3.8 3.8 3.5 0.6 1.2 4.0 4.0 5.0 4.6 4.7 5.1 6.0 5.8 5.9 6.9 5.7 5.3 5.9 6.5 6.3 6.5 6.5 6.5 6.5 6.5 6.5 6.5 6.5 6.5 6.5 6.5 6.5 6.5 6.5 6.5 6.5 6.4 5.7 5.1 4.7 1.2 2.4
3.0 3.0 3.2 3.7 3.2 1.1 1.6 3.3 4.1 4.3 5.9 5.3 6.6 6.3 6.4 6.3 6.5 6.5 5.6 5.4 6.4 6.5 6.5 6.5 6.5 6.5 6.5 6.5 6.5 6.5 6.5 6.5 6.5 6.5 6.5 6.5 6.5 6.5 6.5 6.3 6.5 5.5 4.8 4.1 3.6
3.0 3.1 3.0 3.5 2.8 0.5 2.7 2.8 3.3 5.3 6.5 6.5 6.4 6.4 6.7 4.9 6.4 7.2 6.3 5.8 6.3 6.5 6.5 6.5 6.5 6.5 6.5 6.5 6.5 6.5 6.5 6.5 6.5 6.5 6.5 6.5 6.5 6.5 6.5 6.5 6.5 6.8 7.0 7.1 7.2
3.2 3.2 3.1 2.7 1.6 2.3 4.2 2.1 3.4 4.9 6.5 6.5 6.5 7.3 6.3 6.0 6.7 6.2 6.5 5.7 6.5 6.5 6.5 6.5 6.5 6.5 6.5 6.5 6.5 6.5 6.5 6.5 6.5 6.5 6.5 6.5 6.5 6.5 6.5 6.5 6.5 6.5 7.0 7.3 7.1
3.2 3.0 3.2 1.5 0.3 3.3 2.3 2.6 4.4 6.5 6.5 6.5 6.4 6.5 6.5 6.3 6.2 6.1 6.1 5.8 6.2 6.5 6.5 6.5 6.0 6.5 6.5 6.5 6.5 6.5 6.5 6.5 6.5 6.5 6.5 6.5 6.5 6.5 6.5 6.5 6.5 6.6 7.0 7.3 7.4
3.3 2.8 2.4 2.3 3.2 2.3 1.4 2.9 6.5 6.5 6.5 6.5 6.5 6.5 6.5 6.5 6.5 6.5 6.5 6.5 6.5 6.5 6.5 6.5 6.5 6.5 6.6 6.5 6.5 6.5 6.5 6.5 6.5 6.5 6.5 6.5 6.5 6.5 6.5 6.5 6.5 6.5 6.9 7.3 7.4
2.9 1.7 1.5 4.0 3.2 2.0 1.5 6.0 6.5 6.5 6.5 6.5 6.5 6.5 6.5 6.5 6.5 6.5 6.5 6.5 6.5 6.5 6.5 6.5 6.5 6.5 6.5 6.5 6.5 6.5 6.5 6.5 6.5 6.5 6.5 6.5 6.5 6.5 6.5 6.7 6.9 7.0 7.0 7.3 7.4
1.6 -0.8 2.3 3.7 2.5 1.1 2.6 6.5 6.5 6.5 6.5 6.5 6.5 6.5 6.5 6.5 6.5 6.5 6.5 6.5 6.5 6.5 6.5 6.5 6.5 6.5 6.5 6.5 6.5 6.5 6.5 6.5 6.5 6.5 6.5 6.5 6.5 6.5 6.5 6.5 6.7 6.8 7.1 7.1 7.3
-1.4 -0.0 3.4 3.1 2.0 1.4 5.5 6.5 6.5 6.5 6.5 6.5 6.5 6.5 6.5 6.5 6.5 6.5 6.5 6.5 6.5 6.2 4.9 6.5 6.5 6.5 6.5 6.4 6.4 6.5 6.5 6.5 6.5 6.5 6.5 6.5 6.5 6.5 6.5 6.5 6.5 6.5 6.8 7.1 7.3
-0.8 3.0 4.4 2.4 1.7 1.6 6.5 6.5 6.5 6.7 6.6 6.5 6.5 6.5 6.5 6.5 6.5 6.5 6.5 6.5 6.5 6.5 6.3 6.5 6.5 6.5 6.5 6.5 6.5 6.5 6.5 6.5 6.5 6.5 6.5 6.5 6.5 6.5 6.5 6.5 6.5 6.6 7.0 7.1 7.2
1.1 6.0 4.1 2.0 4.4 5.2 6.5 6.5 7.0 6.5 6.6 6.5 6.5 6.5 6.5 6.5 6.5 6.5 6.5 6.5 6.7 6.4 6.5 6.5 6.5 6.5 6.5 6.5 6.5 6.5 6.5 6.5 6.5 6.5 6.5 6.5 6.5 6.5 6.5 6.6 6.8 6.8 7.1 7.2 7.2
3.4 3.3 3.2 2.7 6.5 6.5 6.4 6.5 6.6 6.5 6.5 6.5 6.5 6.5 6.5 6.5 6.5 6.5 6.5 6.4 6.5 6.5 6.5 6.5 6.5 6.5 6.5 6.5 6.5 6.5 6.5 6.5 6.5 6.5 6.5 6.5 6.5 6.5 6.6 6.6 6.9 6.9 7.1 7.2 7.3
4.0 6.5 4.1 2.8 4.4 6.4 6.5 6.5 6.5 6.7 6.6 6.7 6.5 6.5 6.5 6.5 6.5 6.5 6.5 6.5 6.6 6.7 7.2 6.5 6.5 6.5 6.5 6.5 6.5 6.5 6.5 6.5 6.5 6.5 6.5 6.5 6.5 6.5 6.5 6.5 6.8 7.0 7.2 7.1 7.2
3.5 5.8 5.4 6.5 6.2 6.3 6.4 6.5 6.5 6.5 6.5 6.6 6.5 6.5 6.5 6.5 6.5 6.5 6.5 6.5 6.6 6.9 6.5 6.5 6.5 6.5 6.5 6.5 6.5 6.5 6.5 6.5 6.5 6.5 6.5 6.5 6.5 6.5 6.5 6.5 6.8 7.1 7.3 7.3 7.4
4.4 4.5 4.3 4.6 5.1 6.5 6.5 6.5 6.5 6.5 6.5 6.5 6.5 6.5 6.5 6.5 6.5 6.5 6.5 6.5 6.5 6.5 6.5 6.5 6.5 6.5 6.5 6.5 6.5 6.5 6.5 6.5 6.5 6.5 6.5 6.5 6.5 6.5 6.8 7.0 7.0 7.1 7.2 7.2 7.4
2.7 3.5 5.3 6.0 6.1 6.5 6.5 6.5 6.5 6.5 6.4 6.5 6.3 6.5 6.5 6.5 5.3 4.1 4.2 5.4 5.9 6.4 6.5 6.5 6.5 6.5 6.5 6.5 6.5 6.5 6.5 6.5 6.5 6.5 6.5 6.5 6.5 6.5 6.5 6.6 6.8 6.9 7.1 7.1 7.2
Wind_Speed
17 18 18 18 18 18 17 17 16 16 14 13 13 12 13 14 15 3 6 6 7 17 7 2 4 3 2 1 2 2 1 5 7 7 6 4 3 1 2 3 3 7 5 3 9
18 19 20 20 19 18 17 17 17 17 16 14 12 11 11 11 3 6 12 20 17 14 1 1 0 3 1 3 3 4 4 9 6 6 5 3 2 2 2 3 3 3 1 3 8
19 20 20 20 19 19 19 20 20 18 16 12 10 10 9 6 2 2 22 24 19 18 7 2 2 4 3 2 5 6 9 5 3 7 4 4 3 2 2 4 6 8 5 7 5
21 21 21 20 20 20 21 23 19 15 11 7 6 8 8 2 1 3 23 21 17 11 4 2 1 2 4 9 5 7 7 5 3 6 5 4 5 5 4 5 5 9 4 6 9
21 22 21 20 22 22 24 23 16 12 9 5 4 5 3 5 1 7 22 18 9 6 4 2 4 2 5 4 5 7 4 5 12 11 7 5 8 6 7 8 6 1 5 7 6
22 22 23 23 24 24 26 19 12 13 11 5 2 2 2 6 6 11 17 9 6 4 4 2 4 4 6 6 8 4 7 17 16 12 6 16 17 6 6 8 9 6 9 8 8
23 23 24 25 25 27 27 17 10 9 9 7 2 2 7 5 4 17 10 5 3 2 3 4 5 6 2 5 5 7 13 14 16 3 12 5 14 23 8 6 7 9 9 9 10
23 24 25 27 27 30 28 12 9 6 6 4 2 3 3 1 11 7 7 7 8 7 6 10 6 5 5 4 7 6 5 8 7 16 7 12 26 13 12 13 16 11 10 10 11
24 25 26 27 27 32 29 9 10 5 6 5 4 3 0 9 9 9 5 6 10 6 5 5 4 6 3 6 7 7 15 9 9 6 5 15 18 8 12 11 15 15 11 10 11
24 24 25 26 23 30 25 3 8 7 7 3 2 4 6 6 5 7 12 7 4 8 7 5 3 3 2 8 17 16 13 6 11 6 11 9 23 7 3 7 10 9 8 8 9
25 24 23 24 17 24 15 4 7 6 10 2 1 0 4 7 3 10 11 8 6 6 5 5 2 9 9 13 21 19 21 17 11 11 6 11 20 11 7 6 8 8 9 8 8
25 24 23 22 7 16 7 6 2 3 6 1 3 4 2 3 5 14 12 7 5 5 6 5 6 8 15 18 17 16 19 30 24 11 10 10 15 8 8 6 3 3 2 5 5
25 25 25 24 2 6 6 5 4 7 1 5 2 4 4 4 4 8 8 6 3 4 4 3 11 15 11 16 14 16 15 16 18 10 21 4 9 6 6 5 7 8 5 7 7
25 25 24 23 4 2 2 2 4 5 2 3 1 4 6 4 2 3 6 3 5 5 6 7 9 17 14 15 10 16 6 15 14 14 16 14 14 8 10 11 7 8 7 7 8
25 24 19 9 2 3 5 13 5 2 5 2 3 2 5 5 5 5 5 6 3 5 1 5 11 13 14 11 13 12 17 15 17 16 14 19 8 5 9 6 7 9 10 9 9
28 26 11 2 2 0 12 2 2 4 6 2 3 5 6 5 5 7 6 5 2 3 2 9 6 2 4 15 11 16 15 17 17 10 13 6 9 1 3 4 7 11 12 11 12
29 20 4 2 2 10 3 3 4 4 4 4 3 4 5 6 4 6 5 5 1 5 5 7 7 4 4 14 16 15 8 5 7 10 7 8 10 7 11 15 13 11 12 12 12
29 8 5 5 13 6 3 5 3 2 2 1 3 5 3 7 3 7 5 4 2 3 3 2 6 8 9 2 7 15 4 4 6 4 6 6 5 3 10 14 12 13 12 13 14
16 4 2 7 11 2 5 2 3 1 2 6 5 2 2 4 2 5 5 3 4 5 3 1 5 13 12 8 5 6 3 7 5 12 4 7 6 7 17 16 16 15 15 15 14
2 2 2 19 6 4 4 2 1 0 2 0 1 2 2 5 4 5 3 3 3 4 3 4 5 9 7 5 3 2 7 4 3 4 6 6 6 4 14 15 14 16 15 14 14
3 3 3 19 3 5 3 2 2 2 1 3 3 4 4 3 3 2 4 5 3 6 5 3 3 7 4 2 3 5 4 4 4 4 3 2 4 8 9 12 12 13 13 13 13
2 2 4 6 4 2 1 2 3 2 1 3 3 5 4 2 3 4 6 5 4 4 5 4 3 3 6 5 2 4 5 4 2 4 3 2 3 8 8 11 13 12 13 11 11
2 2 3 4 3 1 3 3 2 2 1 2 3 4 2 2 4 3 5 4 11 3 4 3 1 3 9 6 6 5 6 8 11 4 2 1 2 9 11 13 13 12 13 12 14
2 3 4 4 1 3 0 3 3 2 3 3 3 2 2 5 5 4 7 6 6 7 18 1 2 5 5 6 2 5 9 13 7 2 2 4 4 11 12 13 13 14 13 12 13
2 1 2 3 0 3 3 2 3 4 3 2 3 5 4 4 3 7 7 4 8 6 2 3 1 3 4 8 8 7 4 11 13 10 4 3 4 9 9 10 11 13 15 17 18
2 2 0 2 1 3 5 5 6 4 5 4 5 7 3 6 8 12 8 4 5 4 3 2 2 2 7 6 8 11 11 7 8 8 5 4 3 9 7 7 13 14 16 17 17
1 1 3 5 3 4 5 6 8 5 5 9 5 3 6 13 9 11 10 6 6 5 2 2 2 2 3 10 6 4 5 4 4 8 4 5 4 6 2 9 13 13 14 14 14
Wind_Direction
9 6 3 1 359 355 349 343 338 333 332 325 319 318 322 330 331 20 42 277 294 297 348 357 61 91 30 279 111 146 60 234 231 177 239 240 227 236 192 255 236 195 170 267 132
9 5 1 359 357 352 347 341 333 326 322 322 321 316 322 336 18 60 340 348 333 326 13 356 26 103 222 217 197 168 194 225 218 193 229 281 233 286 283 226 244 256 250 121 138
8 4 1 357 354 349 346 340 331 321 313 312 319 317 323 338 78 46 342 349 351 341 152 125 84 155 225 182 216 208 233 226 260 246 276 262 253 232 218 251 225 213 206 166 158
7 3 359 355 352 350 347 341 335 331 328 318 320 317 321 109 116 302 342 344 358 34 85 140 162 206 218 223 219 258 242 211 260 227 241 246 316 309 207 237 286 244 199 170 169
7 1 356 354 354 352 349 345 346 3 357 354 344 323 352 52 32 307 342 342 3 33 41 300 206 216 221 223 241 245 216 239 243 244 228 291 261 245 252 259 290 282 165 197 186
4 359 357 354 354 353 351 352 6 17 20 38 65 327 42 68 299 320 333 335 7 28 342 173 232 244 266 241 210 271 257 250 249 241 233 245 264 170 251 241 220 219 217 212 206
3 359 358 355 354 353 353 349 358 17 30 45 42 31 63 179 336 341 341 306 283 279 256 227 213 181 319 299 278 280 274 268 249 234 244 164 267 240 239 257 229 216 220 227 225
1 359 0 357 353 349 352 344 331 334 351 19 57 39 117 248 2 353 339 328 311 262 217 245 208 225 194 279 318 320 265 249 254 215 224 172 254 241 223 206 228 216 224 222 228
2 1 1 358 353 347 353 345 1 346 4 355 34 32 4 330 16 334 354 321 301 300 257 255 118 206 180 232 272 218 256 252 281 227 192 187 256 240 214 204 233 226 222 229 234
3 2 360 357 355 351 352 2 357 32 356 68 64 36 16 323 333 329 340 352 313 321 351 25 222 229 190 198 235 244 244 261 238 233 197 204 248 248 157 181 219 234 242 239 236
2 1 358 356 1 7 3 16 16 356 33 80 315 162 300 315 12 1 342 334 9 41 17 309 306 255 259 251 250 258 253 260 244 233 233 227 247 234 264 228 219 241 245 253 261
359 358 354 355 11 28 35 69 157 219 319 289 272 300 297 352 351 4 343 33 20 357 348 3 257 276 325 305 294 290 274 248 249 220 218 234 248 229 228 251 203 287 34 38 21
356 354 350 348 141 40 74 99 293 141 247 300 175 54 324 11 46 348 9 339 346 350 350 243 267 313 329 316 323 291 273 286 280 253 231 196 261 221 221 135 89 55 44 41 44
354 351 350 342 49 302 60 163 269 155 23 175 332 14 350 350 118 20 4 39 356 329 325 270 328 330 319 310 318 294 311 269 264 280 220 177 245 192 210 204 87 57 53 40 26
351 347 346 17 192 57 301 334 137 93 360 31 36 345 339 67 290 6 2 17 10 304 3 274 305 309 314 320 317 274 286 277 266 261 255 198 217 220 178 161 114 78 51 39 33
347 342 343 44 43 73 324 18 59 41 258 30 27 358 357 27 3 334 14 28 244 307 227 293 276 279 351 315 308 291 286 275 267 248 265 188 191 153 41 120 107 79 61 37 28
346 342 29 73 316 322 348 58 25 143 20 19 359 352 320 353 348 17 359 357 24 6 341 316 300 326 341 336 327 354 332 270 225 216 225 215 184 51 61 61 77 75 60 45 29
344 357 11 82 336 343 61 51 192 46 23 2 336 325 32 14 2 345 348 332 357 82 294 328 330 352 334 289 265 297 263 295 290 220 219 136 190 59 41 53 55 49 42 41 30
346 356 31 333 349 61 76 79 243 39 299 342 321 341 356 28 337 2 333 234 238 176 156 293 263 312 309 326 345 334 298 316 251 242 270 127 114 45 19 30 32 33 30 24 23
58 16 312 341 4 67 83 218 267 141 356 312 286 2 308 334 335 8 298 243 289 202 165 265 285 278 314 337 354 244 308 346 285 283 230 114 69 37 5 7 15 24 21 16 20
44 48 272 347 65 49 138 226 296 233 65 219 218 262 260 274 230 261 257 270 29 323 189 169 149 290 4 6 273 342 357 314 285 257 312 60 67 13 10 5 14 14 17 15 16
32 11 312 5 50 83 99 214 286 285 58 276 232 233 222 210 260 245 238 234 223 303 282 216 152 273 273 264 300 93 0 319 296 351 349 52 73 8 12 20 17 14 14 16 18
24 284 321 61 96 336 317 307 274 276 274 302 282 226 138 209 285 267 264 285 309 275 230 207 234 330 337 352 360 43 354 318 278 253 23 341 88 17 20 22 16 12 14 11 18
51 350 339 38 57 123 55 265 271 271 263 232 271 256 212 232 224 271 279 300 310 297 290 333 107 160 199 234 273 360 345 351 346 41 91 46 42 9 19 21 13 12 14 13 17
46 274 181 305 298 168 173 262 248 248 237 223 268 219 220 262 253 263 265 299 289 304 62 84 204 176 126 110 85 52 353 8 30 16 54 41 64 0 13 16 12 15 15 17 16
159 162 121 250 258 200 212 224 225 227 182 242 221 262 203 211 220 275 266 209 253 327 36 15 216 175 182 175 108 70 31 15 28 16 41 46 43 353 347 30 27 17 16 14 9
198 264 142 223 188 150 216 220 236 189 241 237 236 251 264 264 240 233 225 223 219 185 34 320 142 84 254 183 209 21 357 41 60 25 347 33 325 327 348 42 30 14 14 6 1